Change the Weather History Date:

Monday, May 20, 2013

  Actual Average Record
Temperature  
Mean Temperature 51 °F -  
Max Temperature 56 °F 55 °F 81 °F (2012)
Min Temperature 46 °F 40 °F 33 °F (2000)
Degree Days  
Heating Degree Days 14    
Growing Degree Days 1 (Base 50)    
Moisture  
Dew Point 49 °F    
Average Humidity 90    
Maximum Humidity 96    
Minimum Humidity 75    
Precipitation  
Precipitation 0.30 in - - ()
Sea Level Pressure  
Sea Level Pressure 29.85 in    
Wind  
Wind Speed 16 mph (East)    
Max Wind Speed 23 mph    
Max Gust Speed 37 mph    
Visibility 6 miles    
Events Fog , Rain    
Averages and records for this station are not official NWS values.
T = Trace of Precipitation, MM = Missing Value Source: NWS Daily Summary

Daily Weather History Graph

Daily Weather History Graph

Search for Another Location

Airport or City:

Trip Planner

Search our weather history database for the weather conditions in past years. The results will help you decide how hot, cold, wet, or windy it might be!

Date:

Astronomy

May. 20, 2013 Rise Set
Actual Time 6:01 AM EDT 9:09 PM EDT
Civil Twilight 5:25 AM EDT 9:45 PM EDT
Nautical Twilight 4:39 AM EDT 10:31 PM EDT
Astronomical Twilight 3:43 AM EDT 11:28 PM EDT
Moon 4:02 PM EDT (5/20) 3:11 AM EDT (5/20)
Length of Visible Light 16h 20m
Length of Day
15h 08m
Waxing Gibbous, 75% of the Moon is Illuminated
May 20
Waxing Gibbous
May 25
Full
May 31
Last Quarter
Jun 8
New
Jun 16
First Quarter

Hourly Weather History & Observations

Time (EDT) Temp. Dew Point Humidity Pressure Visibility Wind Dir Wind Speed Gust Speed Precip Events Conditions
12:14 AM 51.1 °F 45.1 °F 80% 29.92 in 7.0 mi East 11.5 mph 20.7 mph N/A   Mostly Cloudy
12:34 AM 52.9 °F 47.5 °F 82% 29.91 in 7.0 mi ESE 13.8 mph 23.0 mph N/A   Overcast
12:55 AM 54.7 °F 47.5 °F 77% 29.91 in 10.0 mi ESE 11.5 mph 18.4 mph N/A   Overcast
1:14 AM 55.2 °F 47.5 °F 75% 29.90 in 10.0 mi ESE 11.5 mph 18.4 mph N/A   Overcast
1:34 AM 55.4 °F 47.8 °F 76% 29.90 in 10.0 mi ESE 10.4 mph - N/A   Overcast
1:55 AM 54.3 °F 48.2 °F 80% 29.90 in 7.0 mi ESE 9.2 mph - N/A   Scattered Clouds
2:14 AM 50.9 °F 46.6 °F 85% 29.89 in 5.0 mi East 10.4 mph 17.3 mph N/A   Mostly Cloudy
2:34 AM 46.9 °F 44.1 °F 90% 29.90 in 2.5 mi East 13.8 mph 21.9 mph N/A   Overcast
2:55 AM 47.5 °F 45.5 °F 93% 29.90 in 1.2 mi East 16.1 mph 24.2 mph N/A   Overcast
3:14 AM 53.2 °F 51.8 °F 95% 29.91 in 1.5 mi East 16.1 mph 26.5 mph N/A   Overcast
3:34 AM 54.5 °F 52.9 °F 94% 29.90 in 2.5 mi East 18.4 mph 28.8 mph N/A   Overcast
3:55 AM 53.6 °F 50.9 °F 91% 29.90 in 7.0 mi East 17.3 mph 27.6 mph N/A   Mostly Cloudy
4:14 AM 54.5 °F 50.0 °F 85% 29.90 in 10.0 mi East 20.7 mph 28.8 mph N/A   Scattered Clouds
4:34 AM 55.2 °F 49.1 °F 80% 29.91 in 10.0 mi East 19.6 mph 29.9 mph N/A   Overcast
4:55 AM 54.5 °F 48.2 °F 79% 29.89 in 10.0 mi East 19.6 mph 27.6 mph N/A   Scattered Clouds
5:14 AM 54.5 °F 48.7 °F 81% 29.90 in 10.0 mi East 17.3 mph 24.2 mph N/A   Clear
5:35 AM 56.3 °F 51.6 °F 84% 29.90 in 10.0 mi East 19.6 mph 27.6 mph N/A   Clear
6:14 AM 54.5 °F 51.3 °F 89% 29.88 in 7.0 mi ESE 19.6 mph 34.5 mph N/A   Clear
6:35 AM 54.0 °F 51.8 °F 92% 29.91 in 4.0 mi ESE 19.6 mph 27.6 mph N/A   Scattered Clouds
6:54 AM 54.7 °F 52.5 °F 92% 29.90 in 5.0 mi East 20.7 mph 29.9 mph N/A   Scattered Clouds
7:14 AM 54.0 °F 52.0 °F 93% 29.92 in 4.0 mi ESE 19.6 mph 34.5 mph N/A   Mostly Cloudy
7:35 AM 53.8 °F 51.4 °F 92% 29.89 in 10.0 mi East 21.9 mph 33.4 mph N/A   Scattered Clouds
7:54 AM 53.1 °F 50.4 °F 91% 29.90 in 10.0 mi East 21.9 mph 31.1 mph N/A   Scattered Clouds
8:14 AM 52.7 °F 50.0 °F 91% 29.91 in 10.0 mi East 18.4 mph 29.9 mph N/A   Overcast
8:35 AM 52.0 °F 49.3 °F 90% 29.91 in 10.0 mi East 18.4 mph 27.6 mph N/A   Overcast
8:54 AM 51.3 °F 49.1 °F 92% 29.90 in 7.0 mi East 19.6 mph 28.8 mph N/A   Overcast
9:14 AM 51.4 °F 49.1 °F 92% 29.90 in 10.0 mi East 20.7 mph 32.2 mph N/A   Overcast
9:35 AM 51.6 °F 48.9 °F 90% 29.91 in 10.0 mi East 20.7 mph 31.1 mph N/A   Overcast
9:54 AM 51.8 °F 49.1 °F 90% 29.91 in 10.0 mi ESE 18.4 mph 32.2 mph N/A   Overcast
10:14 AM 52.7 °F 49.6 °F 89% 29.91 in 10.0 mi East 19.6 mph 28.8 mph N/A   Overcast
10:35 AM 50.5 °F 48.0 °F 91% 29.89 in 7.0 mi East 18.4 mph 29.9 mph N/A   Overcast
10:54 AM 50.9 °F 48.2 °F 90% 29.89 in 10.0 mi East 21.9 mph 32.2 mph N/A   Overcast
11:35 AM 51.8 °F 48.0 °F 87% 29.89 in 10.0 mi East 19.6 mph 32.2 mph N/A   Overcast
11:54 AM 51.8 °F 47.7 °F 86% 29.88 in 10.0 mi East 19.6 mph 32.2 mph N/A   Overcast
12:14 PM 51.4 °F 46.9 °F 85% 29.87 in 10.0 mi ESE 21.9 mph 34.5 mph N/A   Overcast
12:35 PM 49.6 °F 45.5 °F 86% 29.87 in 10.0 mi East 23.0 mph 33.4 mph N/A   Overcast
12:54 PM 49.1 °F 45.3 °F 87% 29.86 in 10.0 mi East 23.0 mph 32.2 mph N/A   Overcast
1:14 PM 48.9 °F 45.3 °F 87% 29.85 in 10.0 mi East 15.0 mph 27.6 mph N/A   Overcast
1:35 PM 50.0 °F 45.5 °F 85% 29.84 in 10.0 mi East 18.4 mph 32.2 mph N/A   Overcast
1:54 PM 50.4 °F 46.4 °F 86% 29.83 in 10.0 mi East 20.7 mph 32.2 mph N/A   Overcast
2:54 PM 49.8 °F 46.0 °F 87% 29.80 in 10.0 mi East 23.0 mph 32.2 mph N/A   Overcast
3:14 PM 50.0 °F 46.6 °F 88% 29.80 in 7.0 mi East 20.7 mph 34.5 mph N/A Rain Light Rain
3:35 PM 48.7 °F 46.4 °F 92% 29.79 in 10.0 mi East 21.9 mph 32.2 mph N/A   Overcast
3:54 PM 48.9 °F 46.8 °F 92% 29.84 in 7.0 mi SE 15.0 mph 26.5 mph N/A Rain Light Rain
4:14 PM 54.5 °F 53.1 °F 95% 29.80 in 1.0 mi ESE 23.0 mph 36.8 mph 0.27 in   Unknown
4:35 PM 52.7 °F 50.7 °F 93% 29.77 in 3.0 mi East 17.3 mph 32.2 mph 0.30 in   Unknown
4:54 PM 50.0 °F 48.2 °F 94% 29.76 in 7.0 mi ESE 15.0 mph 25.3 mph 0.30 in   Overcast
5:14 PM 51.1 °F 49.6 °F 95% 29.76 in 5.0 mi East 13.8 mph 21.9 mph N/A   Overcast
5:35 PM 50.9 °F 49.5 °F 95% 29.77 in 2.0 mi East 5.8 mph - N/A   Overcast
5:54 PM 50.4 °F 49.1 °F 95% 29.78 in 0.8 mi ENE 4.6 mph - N/A   Overcast
6:14 PM 50.0 °F 48.4 °F 94% 29.79 in 0.2 mi ENE 9.2 mph - N/A Fog Fog
6:35 PM 51.8 °F 50.7 °F 96% 29.79 in 1.2 mi ENE 4.6 mph - N/A   Overcast
6:54 PM 50.7 °F 49.3 °F 95% 29.79 in 1.2 mi East 8.1 mph - N/A   Overcast
7:14 PM 50.4 °F 49.1 °F 95% 29.79 in 1.2 mi East 6.9 mph - N/A   Overcast
7:35 PM 50.9 °F 49.5 °F 95% 29.80 in 1.0 mi ESE 8.1 mph 18.4 mph N/A   Overcast
7:54 PM 50.9 °F 49.5 °F 95% 29.80 in 0.2 mi East 9.2 mph 20.7 mph N/A Fog Fog
8:14 PM 50.5 °F 49.3 °F 95% 29.79 in 0.2 mi East 12.7 mph 17.3 mph N/A Fog Fog
8:35 PM 51.8 °F 50.5 °F 95% 29.79 in 0.2 mi East 16.1 mph 21.9 mph N/A Fog Fog
8:54 PM 55.2 °F 54.1 °F 96% 29.80 in 4.0 mi East 17.3 mph 27.6 mph N/A   Mostly Cloudy
9:14 PM 56.5 °F 55.4 °F 96% 29.80 in 4.0 mi East 16.1 mph 27.6 mph N/A   Mostly Cloudy
9:35 PM 54.0 °F 52.7 °F 95% 29.80 in 0.5 mi East 15.0 mph 19.6 mph N/A Fog Fog
9:54 PM 54.9 °F 53.4 °F 95% 29.80 in 0.8 mi East 16.1 mph 21.9 mph N/A   Overcast
10:14 PM 55.8 °F 54.5 °F 96% 29.80 in 7.0 mi East 15.0 mph 24.2 mph N/A   Overcast
10:34 PM 54.9 °F 53.6 °F 96% 29.80 in 7.0 mi East 15.0 mph 26.5 mph N/A   Overcast
10:54 PM 54.5 °F 53.1 °F 95% 29.80 in 7.0 mi East 18.4 mph 26.5 mph N/A   Overcast
11:14 PM 53.8 °F 52.3 °F 95% 29.80 in 10.0 mi East 18.4 mph 28.8 mph N/A   Overcast
11:34 PM 53.8 °F 52.5 °F 95% 29.81 in 10.0 mi East 18.4 mph 25.3 mph N/A   Overcast
11:54 PM 53.1 °F 51.6 °F 95% 29.80 in 2.5 mi East 16.1 mph 21.9 mph N/A   Overcast